SCP
0 0 0 0 0 0 0 0 0 0 0 0 0 0 0 0 0 0 0 0 0 0 0 0 0 0 0 0 0 0 0 0 0 0 0 0 0 0 0 0 0 0 0
0 0 0 0 0 0 0 0 0 0 0 0 0 0 0 0 0 0 0 0 0 0 0 0 0 0 0 0 0 0 0 0 0 0 0 0 0 0 0 0 0 0 0
0 0 0 0 0 0 0 0 0 0 0 0 0 0 0 0 0 0 0 0 0 0 0 0 0 0 0 0 0 0 0 0 0 0 0 0 0 0 0 0 0 0 0
0 0 0 0 0 0 0 0 0 0 0 0 0 0 0 0 0 0 0 0 0 0 0 0 0 0 0 0 0 0 0 0 0 0 0 0 0 0 0 0 0 0 0
0 0 0 0 0 0 0 0 0 0 0 0 0 0 0 0 0 0 0 0 0 0 0 0 0 0 0 0 0 0 0 0 0 0 0 0 0 0 0 0 0 0 0
0 0 0 0 0 0 0 0 0 0 0 0 0 0 0 0 0 0 0 0 0 0 0 0 0 0 0 0 0 0 0 0 0 0 0 0 0 0 0 0 0 0 0
0 0 0 0 0 0 0 0 0 0 0 0 0 0 0 0 0 0 0 0 0 0 0 0 0 0 0 0 0 0 0 0 0 0 0 0 0 0 0 0 0 0 0
0 0 0 0 0 0 0 0 0 0 0 0 0 0 0 0 0 0 0 0 0 0 0 0 0 0 0 0 0 0 0 0 0 0 0 0 0 0 0 0 0 0 0
0 0 0 0 0 0 0 0 0 0 0 0 0 0 0 0 0 0 0 0 0 0 0 0 0 0 0 0 0 0 0 0 0 0 0 0 0 0 0 0 0 0 0
0 0 0 0 0 0 0 0 0 0 0 0 0 0 0 0 0 0 0 0 0 0 0 0 0 0 0 0 0 0 0 0 0 0 0 0 0 0 0 0 0 0 0
0 0 0 0 0 0 0 0 0 0 0 0 0 0 0 0 0 0 0 0 0 0 0 0 0 0 0 0 0 0 0 0 0 0 0 0 0 0 0 0 0 0 0
0 0 0 0 0 0 0 0 0 0 0 0 0 0 0 0 0 0 0 0 0 0 0 0 0 0 0 0 0 0 0 0 0 0 0 0 0 0 0 0 0 0 0
0 0 0 0 0 0 0 0 0 0 0 0 0 0 0 0 0 0 0 0 0 0 0 0 0 0 0 0 0 0 0 0 0 0 0 0 0 0 0 0 0 0 0
0 0 0 0 0 0 0 0 0 0 0 0 0 0 0 0 0 0 0 0 0 0 0 0 0 0 0 0 0 0 0 0 0 0 0 0 0 0 0 0 0 0 0
0 0 0 0 0 0 0 0 0 0 0 0 0 0 0 0 0 0 0 0 0 0 0 0 0 0 0 0 0 0 0 0 0 0 0 0 0 0 0 0 0 0 0
0 0 0 0 0 0 0 0 0 0 0 0 0 0 0 0 0 0 0 0 0 0 0 0 0 0 0 0 0 0 0 0 0 0 0 0 0 0 0 0 0 0 0
0 0 0 0 0 0 0 0 0 0 0 0 0 0 0 0 0 0 0 0 0 0 0 0 0 0 0 0 0 0 0 0 0 0 0 0 0 0 0 0 0 0 0
0 0 0 0 0 0 0 0 0 0 0 0 0 0 0 0 0 0 0 0 0 0 0 0 0 0 0 0 0 0 0 0 0 0 0 0 0 0 0 0 0 0 0
0 0 0 0 0 0 0 0 0 0 0 0 0 0 0 0 0 0 0 0 0 0 0 0 0 0 0 0 0 0 0 0 0 0 0 0 0 0 0 0 0 0 0
0 0 0 0 0 0 0 0 0 0 0 0 0 0 0 0 0 0 0 0 0 0 0 0 0 0 0 0 0 0 0 0 0 0 0 0 0 0 0 0 0 0 0
0 0 0 0 0 0 0 0 0 0 0 0 0 0 0 0 0 0 0 0 0 0 0 0 0 0 0 0 0 0 0 0 0 0 0 0 0 0 0 0 0 0 0
0 0 0 0 0 0 0 0 0 0 0 0 0 0 0 0 0 0 0 0 0 0 0 0 0 0 0 0 0 0 0 0 0 0 0 0 0 0 0 0 0 0 0
0 0 0 0 0 0 0 0 0 0 0 0 0 0 0 0 0 0 0 0 0 0 0 0 0 0 0 0 0 0 0 0 0 0 0 0 0 0 0 0 0 0 0
0 0 0 0 0 0 0 0 0 0 0 0 0 0 0 0 0 0 0 0 0 0 0 0 0 0 0 0 0 0 0 0 0 0 0 0 0 0 0 0 0 0 0
0 0 0 0 0 0 0 0 0 0 0 0 0 0 0 0 0 0 0 0 0 0 0 0 0 0 0 0 0 0 0 0 0 0 0 0 0 0 0 0 0 0 0
0 0 0 0 0 0 0 0 0 0 0 0 0 0 0 0 0 0 0 0 0 0 0 0 0 0 0 0 0 0 0 0 0 0 0 0 0 0 0 0 0 0 0
Wind_Speed
4 3 2 2 2 2 2 2 2 1 1 2 2 2 2 2 2 1 2 2 2 2 2 2 3 3 2 2 2 2 3 3 5 4 3 3 4 5 4 4 4 4 5
4 4 3 2 2 2 2 2 2 2 2 2 2 2 3 2 2 2 2 2 2 3 3 3 4 3 3 3 2 3 4 4 5 6 4 3 4 4 5 5 4 4 4
5 4 3 3 3 3 3 2 2 2 2 2 2 3 3 3 3 3 3 3 3 3 4 4 4 4 4 3 4 4 4 4 4 5 5 3 3 3 4 4 4 4 5
5 5 4 4 4 3 3 3 2 2 3 3 3 3 3 3 3 3 3 3 3 4 4 4 5 5 6 5 5 5 4 4 4 5 5 4 4 4 3 4 4 3 4
6 5 5 4 3 3 3 3 3 3 3 3 3 3 3 3 3 3 3 4 4 5 5 5 5 7 9 7 5 5 5 4 4 5 5 4 5 4 4 3 4 4 4
6 6 5 4 3 3 3 3 3 3 3 2 3 3 4 3 4 5 4 4 4 5 6 6 6 7 8 8 9 9 8 7 6 5 5 6 7 6 5 4 4 4 4
6 5 5 4 4 4 3 3 3 3 3 3 3 4 5 6 7 7 6 4 5 5 6 6 5 5 5 5 7 8 8 10 10 8 8 9 8 7 6 6 6 6 6
6 5 5 5 4 4 3 4 4 3 3 3 4 4 5 7 8 7 6 4 5 6 6 6 7 7 6 5 6 6 7 8 8 8 9 10 9 8 7 7 6 6 6
7 6 6 5 5 4 4 5 3 3 3 4 4 5 6 7 8 7 5 3 4 6 6 6 7 7 8 7 6 7 8 8 8 10 11 11 12 11 8 5 5 5 6
8 7 6 6 6 5 5 4 3 3 4 4 5 5 6 7 8 8 5 2 4 6 6 6 8 8 9 8 6 6 8 8 6 6 6 7 8 9 10 9 7 7 6
7 5 5 5 5 5 4 3 3 3 3 4 5 6 6 7 8 8 6 3 4 5 5 5 5 7 9 9 7 7 10 9 7 6 6 6 6 6 7 7 8 8 8
5 5 5 5 5 4 4 4 3 3 4 5 5 6 5 5 6 7 8 7 6 5 6 5 6 8 10 10 8 9 11 9 6 5 6 6 6 6 6 6 8 9 9
6 5 5 5 4 4 4 4 3 3 3 4 4 5 6 5 5 8 10 9 8 6 6 8 9 11 10 8 9 10 8 5 5 6 6 7 6 6 6 5 6 7 8
6 5 4 4 4 4 3 4 4 4 4 5 5 6 6 5 5 4 4 5 6 6 5 6 8 9 7 7 7 6 5 5 5 6 6 6 5 5 5 5 4 4 4
5 5 4 4 4 4 4 5 6 6 6 6 6 6 6 7 8 8 5 5 4 4 3 3 3 3 4 4 4 4 4 4 5 5 6 6 5 5 5 4 4 4 4
5 5 4 4 4 4 4 5 8 10 11 13 13 10 8 12 12 11 10 11 10 6 3 4 5 5 5 5 5 5 4 4 5 5 5 5 5 5 5 4 4 5 6
6 5 4 4 4 4 4 4 6 6 8 11 12 13 14 14 14 13 11 9 8 6 5 6 6 6 6 6 5 5 5 5 4 5 5 5 5 5 5 5 4 5 5
6 6 5 4 4 5 5 5 5 5 6 6 6 9 11 13 13 12 9 5 4 5 6 7 7 7 6 6 6 6 6 5 5 5 5 5 5 5 5 5 5 6 5
6 5 4 4 4 5 5 5 5 6 6 7 6 7 8 8 8 8 6 5 6 6 6 7 7 6 6 6 6 6 6 6 5 5 5 5 5 5 5 5 5 6 6
5 7 6 4 4 4 5 5 5 6 6 6 7 7 4 3 4 4 5 6 6 7 7 7 7 7 6 6 6 5 5 5 5 5 5 5 4 4 5 6 5 5 5
4 4 5 4 4 5 5 5 5 6 6 7 7 7 7 5 6 7 6 6 7 7 7 7 6 6 6 6 5 6 7 5 5 4 4 4 4 4 5 5 5 5 5
3 3 3 4 4 4 5 5 5 6 7 8 7 7 7 6 6 6 6 6 6 6 6 6 6 5 5 5 5 6 6 6 5 4 5 4 4 5 5 4 4 4 4
3 3 3 4 4 5 5 5 5 6 6 7 7 6 6 5 6 6 6 6 5 5 5 5 6 5 5 5 5 5 5 5 4 4 4 5 4 5 4 4 5 5 5
2 3 4 4 4 4 5 5 5 6 6 6 6 6 6 6 6 7 6 5 5 5 5 5 6 7 8 5 4 4 5 4 4 4 6 6 5 5 5 5 5 6 6
2 3 3 4 4 5 5 5 6 6 6 6 6 6 6 6 6 6 6 5 6 6 6 5 4 5 7 7 5 5 4 4 4 4 4 5 6 6 5 6 5 6 5
2 3 3 3 4 4 5 5 6 6 6 6 6 6 6 6 6 6 5 5 5 5 5 4 5 5 5 5 6 6 4 4 4 5 4 5 6 6 6 5 6 6 6
Wind_Direction
183 187 180 190 189 185 197 221 233 255 273 283 291 299 306 309 316 304 287 284 281 288 285 266 268 263 254 243 226 220 220 217 247 268 263 275 281 285 294 288 276 265 263
184 181 186 186 181 193 220 239 241 257 273 275 280 287 291 290 292 277 285 288 276 281 285 280 276 275 260 251 237 234 231 222 232 262 272 271 267 276 283 286 286 278 269
177 177 182 189 195 213 231 245 247 257 276 284 273 273 281 283 282 272 267 272 267 267 271 271 275 272 265 257 247 245 244 240 228 246 266 264 268 273 282 282 281 278 277
176 179 190 203 209 221 234 245 252 256 267 275 271 270 274 275 272 271 267 265 268 272 271 268 268 261 259 260 255 248 245 245 239 246 260 265 264 267 263 270 280 274 279
177 188 204 210 214 223 237 249 256 260 263 265 273 278 274 268 263 262 262 263 268 279 279 272 268 266 260 253 253 246 239 242 245 249 258 262 261 257 253 251 265 282 278
183 198 205 206 215 225 236 245 254 264 273 274 274 279 283 277 285 277 261 264 267 271 280 285 283 276 274 271 263 256 238 236 241 245 253 255 259 254 252 251 255 267 275
191 200 201 203 216 227 232 235 248 259 264 271 272 271 274 277 282 283 274 260 261 264 267 275 279 278 282 280 278 275 262 248 237 238 248 252 256 250 246 253 247 246 252
194 202 203 204 217 225 225 238 247 248 252 260 266 267 269 276 280 282 284 271 263 265 263 262 265 275 275 273 277 276 270 264 251 243 244 250 253 251 240 248 257 263 262
198 206 207 204 211 217 229 242 243 240 254 255 262 267 268 279 283 281 280 271 274 277 272 265 261 266 272 272 270 272 277 275 264 251 245 252 254 251 237 235 242 246 261
205 208 206 200 205 217 230 239 233 233 251 265 269 264 262 272 279 279 274 254 274 281 282 273 261 261 272 275 263 262 270 274 279 282 271 265 259 254 238 228 233 240 251
201 200 202 203 209 220 228 229 235 246 260 266 271 273 268 266 274 275 264 241 253 271 277 278 272 269 272 274 263 251 254 266 276 274 275 274 268 258 248 235 228 231 237
185 193 203 207 213 213 217 238 239 238 257 269 274 283 275 267 264 267 262 253 245 251 262 269 273 280 280 277 267 254 259 262 260 263 265 265 264 261 254 246 239 236 237
180 196 207 213 216 213 215 235 245 238 245 261 264 273 280 277 267 261 263 265 257 245 256 263 275 283 286 278 265 265 263 250 246 252 257 259 257 261 265 258 249 244 243
187 203 208 215 228 227 223 226 231 237 241 250 256 263 272 277 270 260 257 262 261 255 264 274 281 280 273 268 276 273 254 241 240 252 260 263 263 258 256 250 246 243 249
194 207 214 219 227 237 238 231 229 233 225 229 244 246 256 269 263 244 243 253 249 253 273 278 276 282 287 283 280 275 265 249 243 245 252 261 263 261 259 246 238 232 237
196 211 215 219 226 232 248 266 246 242 250 242 242 243 248 248 263 270 260 255 255 247 235 256 267 269 270 274 279 283 274 262 255 252 253 255 258 262 266 254 235 235 242
201 211 213 217 226 234 239 249 274 279 261 255 251 249 246 257 263 265 263 260 252 219 226 250 256 259 262 264 264 265 269 270 261 255 255 254 254 257 258 258 249 243 246
209 217 215 222 228 234 240 244 248 264 282 283 271 260 260 260 262 260 256 241 241 215 231 246 252 254 255 259 262 263 266 271 263 257 257 257 254 253 254 254 250 248 249
210 219 220 224 230 237 244 250 254 256 261 271 283 285 273 266 262 255 223 216 238 243 240 245 248 250 251 253 257 258 259 264 264 259 257 259 257 253 253 253 253 251 248
217 229 224 226 236 243 247 252 257 259 263 266 269 271 278 266 264 254 222 225 237 247 249 249 248 245 246 249 253 255 257 258 261 256 256 258 257 254 258 258 254 253 248
217 231 233 232 238 243 248 253 256 259 263 265 266 264 253 254 260 262 253 239 236 241 246 248 251 251 247 246 247 250 254 258 256 255 258 260 260 260 259 258 258 255 255
215 226 228 237 245 250 255 257 260 262 266 268 271 274 262 251 256 258 257 254 247 241 240 244 248 248 246 245 245 247 251 256 257 254 257 260 261 263 263 260 260 261 257
226 241 246 247 247 256 261 263 263 265 269 270 271 272 268 258 257 258 257 257 255 251 245 240 247 250 247 244 241 238 245 251 251 248 254 260 262 264 264 263 263 264 262
234 247 255 260 257 257 262 268 270 272 274 275 274 272 269 267 265 264 261 259 257 256 253 249 249 254 255 254 247 243 243 247 251 247 247 253 260 263 265 266 263 260 263
245 254 258 260 262 264 268 272 274 276 277 275 274 273 272 271 269 267 263 258 258 259 261 257 251 256 261 258 256 255 245 237 243 251 251 251 256 259 260 263 263 264 261
265 264 264 265 264 266 269 274 278 280 279 279 278 275 275 274 271 270 269 264 261 260 262 262 257 257 263 265 264 265 259 251 247 244 246 248 248 250 252 256 261 262 261